Flag for Canada Weather past 2 weeks in Clarington, Ontario, Canada

Now
50 °F

Light rain. Fog.


Feels Like: 47 °F
Forecast: N/A
Wind: 7 mph from South

Location: Peterborough Airport

Current Time: Oct 20, 2014 at 7:35:53 PM

Latest Report: Oct 20, 2014 at 7:00 PM


Visibility: 3 mi

Pressure: 29.82 "Hg

Humidity: 94%

Dew point: 48 °F

Location of ClaringtonLocation

Historic Weather in Clarington — Graph

°F

Clarington temperature yesterday

Maximum temperature yesterday: 45 °F (at 4:00 PM)
Minimum temperature yesterday: 32 °F (at 11:00 PM)
Average temperature yesterday: 38 °F

Past Weeks' High & Low Weather Summary

 TemperatureHumidityPressure
High77 °F (Oct 14, 1:00 PM)100% (Oct 7, 8:00 AM)30.32 "Hg (Oct 7, 8:00 AM)
Low28 °F (Oct 12, 4:00 AM)38% (Oct 12, 5:00 PM)29.46 "Hg (Oct 18, 1:00 AM)
Average50 °F86%29.87 "Hg
* Reported Oct 5 6:00 PM — Oct 20 6:00 PM, Clarington, Weather by CustomWeather, © 2014

Note: Actual official high and low records may vary slightly from our data, if they occured in-between our weather recording intervals... More about our weather records

Advertising

Clarington weather history for previous 24 hours

 ConditionsComfort  
Time TempWeatherWind HumidityBarometerVisibility
6:00 PM
Oct 20
48 °FRain. Fog.3 mph100%29.82 "Hg3 mi
5:00 PM48 °FLight rain. Fog.2 mph100%29.82 "Hg3 mi
4:00 PM48 °FLight rain. Mostly cloudy.2 mph94%29.83 "Hg9 mi
3:04 PM48 °FLight rain. Fog.5 mph94%29.83 "Hg6 mi
3:00 PM48 °FLight rain. Fog.6 mph94%29.83 "Hg4 mi
2:49 PM48 °FLight rain. Fog.6 mph94%29.83 "Hg3 mi
2:00 PM48 °FLight rain. More clouds than sun.6 mph94%29.84 "Hg9 mi
1:00 PM48 °FLight rain. More clouds than sun.7 mph94%29.86 "Hg9 mi
12:00 PM46 °FLight rain. Mostly cloudy.3 mph93%29.89 "Hg9 mi
11:00 AM45 °FLight rain. More clouds than sun.3 mph100%29.90 "Hg9 mi
10:00 AM43 °FLight rain. Cloudy.No wind100%29.92 "Hg8 mi
9:00 AM41 °FLight rain. Mostly cloudy.2 mph93%29.93 "Hg9 mi
8:00 AM37 °FOvercast.No wind100%29.92 "Hg9 mi
7:00 AM37 °FOvercast.3 mph100%29.92 "Hg9 mi
6:00 AM36 °FOvercast.No wind100%29.93 "Hg9 mi
5:00 AM36 °FMostly cloudy.No wind93%29.95 "Hg9 mi
4:00 AM34 °FOvercast.2 mph100%29.98 "Hg9 mi
3:00 AM32 °FOvercast.No wind100%29.98 "Hg9 mi
2:00 AM32 °FPartly cloudy.No wind100%30.00 "Hg9 mi
1:00 AM32 °FPassing clouds.No wind100%30.01 "Hg9 mi
11:00 PM
Oct 19
32 °FPassing clouds.No wind100%30.02 "Hg9 mi
10:00 PM34 °FPartly cloudy.No wind100%30.03 "Hg9 mi
9:00 PM34 °FMostly cloudy.2 mph93%30.04 "Hg9 mi
8:00 PM34 °FPassing clouds.No wind93%30.05 "Hg9 mi
7:00 PM39 °FScattered clouds.No wind75%30.05 "Hg9 mi
Weather by CustomWeather, © 2014

See weather overviewHow to use our weather pages